{"data":{"norad_id":67704,"intl_designator":"2026-025M","name":"STARLINK-36338","alt_names":[],"object_type":"PAYLOAD","status":"ACTIVE","operator":null,"country":"US","launch_date":"2026-02-07","launch_site_code":"AFWTR","launch_vehicle":null,"mission":null,"orbit_class":"UNKNOWN","rcs_meters":null,"size_class":null,"mass_kg":null,"dimensions":null,"purposes":["comms"],"wikipedia_slug":null,"has_3d_model":false,"image_url":null,"decayed_at":null,"tle_current":{"epoch":"2026-05-25T00:09:19.935936Z","epoch_age_seconds":77697,"freshness":"FRESH","line1":"1 67704U 26025M   26145.00648074  .00020201  00000+0  62599-3 0  9994","line2":"2 67704  97.2845 256.5506 0001038  88.9826 271.1535 15.33465696 17700","mean_motion":15.33465696,"eccentricity":0.0001038,"inclination_deg":97.2845,"raan_deg":256.5506,"arg_perigee_deg":88.9826,"mean_anomaly_deg":271.1535,"bstar":0.00062599,"rev_number":1770,"period_min":93.904937277449,"perigee_km":464.77123082503,"apogee_km":466.19196604607,"semimajor_km":6843.6185984356,"source":"CELESTRAK","updated_at":"2026-05-25T13:38:21.664982Z"}}}